Location: Laterina
(43.5167°N, 11.7167°E)
Time: 15:17:49
(UTC+00:00)

Cosmos 909 Rocket - Pass Details

Date: 24 September 2020
Orbit: 991 x 2088 km, 65.9° (Epoch: 25 October)

Event Time Altitude Azimuth Distance (km) Brightness Sun altitude
Rises 19:51:32 0° 328° (NNW) 3,880 8.0 -29.5°
Reaches altitude 10° 19:54:17 10° 332° (NNW) 2,846 7.1 -29.9°
Enters shadow 19:59:58 57° 24° (NNE) 1,156 4.3 -30.8°
